When you browse on this site, cookies collect data to enhance your experience and personalize the content and advertising you see.
Visit our Privacy Policy to learn more. By continuing to use the site, you agree to this use of cookies and data.
  • In Österreich
  • Länderverzeichnis
  • Für 7 Tage
  • Wassertemperatur
  • Wetterkarte
  • News
  • Widgets
  • user-avatar
    Anmelden

    Stündliche Wetter Hlukhove

    Heute, 6 Juni, Samstag

    Zeit Temperatur Niederschläge Wind Luftdruck Luftfeuchtigkeit
    00:00 +15°C° 0 mm 4 m/S 745 mmHg 90%
    01:00 +14°C° 0 mm 4 m/S 746 mmHg 90%
    02:00 +14°C° 0 mm 4 m/S 746 mmHg 91%
    03:00 +13°C° 0 mm 4 m/S 746 mmHg 91%
    04:00 +13°C° 0 mm 4 m/S 746 mmHg 91%
    05:00 +13°C° 0 mm 4 m/S 746 mmHg 90%
    06:00 +14°C° 0 mm 5 m/S 746 mmHg 87%
    07:00 +16°C° 0 mm 5 m/S 747 mmHg 84%
    08:00 +19°C° 0 mm 5 m/S 747 mmHg 81%
    09:00 +20°C° 0 mm 5 m/S 747 mmHg 77%
    10:00 +22°C° 0 mm 6 m/S 747 mmHg 74%
    11:00 +23°C° 0 mm 6 m/S 747 mmHg 71%
    12:00 +24°C° 0 mm 6 m/S 747 mmHg 68%
    13:00 +26°C° 0 mm 5 m/S 747 mmHg 64%
    14:00 +26°C° 0 mm 5 m/S 747 mmHg 61%
    15:00 +26°C° 0 mm 5 m/S 747 mmHg 65%
    16:00 +26°C° 0 mm 4 m/S 747 mmHg 68%
    17:00 +26°C° 0 mm 3 m/S 747 mmHg 72%
    18:00 +24°C° 0 mm 3 m/S 747 mmHg 74%
    19:00 +22°C° 0 mm 3 m/S 747 mmHg 77%
    20:00 +20°C° 0 mm 2 m/S 748 mmHg 79%
    21:00 +19°C° 0 mm 3 m/S 748 mmHg 78%
    22:00 +18°C° 0 mm 3 m/S 748 mmHg 78%
    23:00 +18°C° 0 mm 3 m/S 748 mmHg 77%

    Morgen, 7 Juni, Sonntag

    Zeit Temperatur Niederschläge Wind Luftdruck Luftfeuchtigkeit
    00:00 +17°C° 0 mm 3 m/S 748 mmHg 80%
    01:00 +16°C° 0 mm 3 m/S 748 mmHg 83%
    02:00 +16°C° 0 mm 3 m/S 748 mmHg 86%
    03:00 +16°C° 0 mm 2 m/S 749 mmHg 86%
    04:00 +16°C° 0 mm 2 m/S 749 mmHg 86%
    05:00 +16°C° 0 mm 2 m/S 749 mmHg 86%
    06:00 +18°C° 0 mm 2 m/S 749 mmHg 81%
    07:00 +19°C° 0 mm 3 m/S 749 mmHg 76%
    08:00 +21°C° 0 mm 3 m/S 749 mmHg 71%
    09:00 +22°C° 0 mm 3 m/S 749 mmHg 66%
    10:00 +25°C° 0 mm 3 m/S 750 mmHg 61%
    11:00 +26°C° 0 mm 3 m/S 750 mmHg 56%
    12:00 +26°C° 0 mm 3 m/S 749 mmHg 55%
    13:00 +27°C° 0 mm 3 m/S 749 mmHg 55%
    14:00 +27°C° 0 mm 3 m/S 749 mmHg 54%
    15:00 +27°C° 0 mm 3 m/S 749 mmHg 57%
    16:00 +27°C° 0 mm 2 m/S 749 mmHg 61%
    17:00 +27°C° 0 mm 2 m/S 748 mmHg 64%
    18:00 +25°C° 0 mm 2 m/S 748 mmHg 68%
    19:00 +23°C° 0 mm 2 m/S 748 mmHg 71%
    20:00 +20°C° 0 mm 3 m/S 748 mmHg 74%
    21:00 +20°C° 0 mm 3 m/S 748 mmHg 76%
    22:00 +19°C° 0 mm 3 m/S 748 mmHg 78%
    23:00 +18°C° 0 mm 3 m/S 748 mmHg 80%

    übermorgen, 8 Juni, Montag

    Zeit Temperatur Niederschläge Wind Luftdruck Luftfeuchtigkeit
    00:00 +18°C° 0 mm 3 m/S 748 mmHg 82%
    01:00 +17°C° 0 mm 3 m/S 748 mmHg 84%
    02:00 +17°C° 0 mm 2 m/S 748 mmHg 86%
    03:00 +17°C° 0 mm 2 m/S 748 mmHg 86%
    04:00 +17°C° 0 mm 2 m/S 748 mmHg 86%
    05:00 +18°C° 0 mm 2 m/S 748 mmHg 85%
    06:00 +19°C° 0 mm 3 m/S 749 mmHg 81%
    07:00 +21°C° 0 mm 3 m/S 749 mmHg 77%
    08:00 +23°C° 0 mm 4 m/S 749 mmHg 73%
    09:00 +25°C° 0 mm 4 m/S 749 mmHg 69%
    10:00 +26°C° 0 mm 4 m/S 749 mmHg 64%
    11:00 +27°C° 0 mm 5 m/S 748 mmHg 60%
    12:00 +28°C° 0 mm 5 m/S 748 mmHg 59%
    13:00 +28°C° 0 mm 5 m/S 748 mmHg 59%
    14:00 +28°C° 0 mm 5 m/S 748 mmHg 58%
    15:00 +28°C° 0 mm 4 m/S 747 mmHg 62%
    16:00 +28°C° 0 mm 3 m/S 747 mmHg 65%
    17:00 +28°C° 0 mm 3 m/S 747 mmHg 69%
    18:00 +26°C° 0 mm 3 m/S 747 mmHg 72%
    19:00 +24°C° 0 mm 3 m/S 747 mmHg 75%
    20:00 +21°C° 0 mm 3 m/S 747 mmHg 79%
    21:00 +21°C° 0 mm 3 m/S 747 mmHg 80%
    22:00 +20°C° 0 mm 3 m/S 747 mmHg 81%
    23:00 +19°C° 0 mm 3 m/S 747 mmHg 82%

    9 Juni, Dienstag

    Zeit Temperatur Niederschläge Wind Luftdruck Luftfeuchtigkeit
    00:00 +19°C° 0 mm 3 m/S 747 mmHg 83%
    01:00 +18°C° 0 mm 3 m/S 747 mmHg 83%
    02:00 +18°C° 0 mm 3 m/S 747 mmHg 84%
    03:00 +18°C° 0 mm 3 m/S 747 mmHg 85%
    04:00 +18°C° 0 mm 3 m/S 747 mmHg 86%
    05:00 +18°C° 0 mm 3 m/S 747 mmHg 87%
    06:00 +20°C° 0 mm 3 m/S 747 mmHg 83%
    07:00 +22°C° 0 mm 4 m/S 748 mmHg 79%
    08:00 +25°C° 0 mm 4 m/S 748 mmHg 74%
    09:00 +26°C° 0 mm 4 m/S 748 mmHg 69%
    10:00 +28°C° 0 mm 4 m/S 748 mmHg 63%
    11:00 +29°C° 0 mm 4 m/S 748 mmHg 58%
    12:00 +29°C° 0 mm 4 m/S 747 mmHg 57%
    13:00 +30°C° 0 mm 4 m/S 747 mmHg 56%
    14:00 +30°C° 0 mm 4 m/S 747 mmHg 55%
    15:00 +30°C° 0 mm 3 m/S 747 mmHg 59%
    16:00 +29°C° 0 mm 3 m/S 747 mmHg 63%
    17:00 +29°C° 0 mm 3 m/S 746 mmHg 68%
    18:00 +27°C° 0 mm 3 m/S 746 mmHg 70%
    19:00 +25°C° 0 mm 3 m/S 747 mmHg 72%
    20:00 +24°C° 0 mm 3 m/S 747 mmHg 74%
    21:00 +22°C° 0 mm 3 m/S 747 mmHg 76%
    22:00 +21°C° 0 mm 3 m/S 747 mmHg 78%
    23:00 +20°C° 0 mm 3 m/S 747 mmHg 80%

    10 Juni, Mittwoch

    Zeit Temperatur Niederschläge Wind Luftdruck Luftfeuchtigkeit
    00:00 +20°C° 0 mm 3 m/S 747 mmHg 82%
    01:00 +20°C° 0 mm 3 m/S 747 mmHg 84%
    02:00 +19°C° 0 mm 3 m/S 746 mmHg 86%
    03:00 +19°C° 0 mm 3 m/S 746 mmHg 86%
    04:00 +20°C° 0 mm 3 m/S 747 mmHg 85%
    05:00 +20°C° 0 mm 3 m/S 747 mmHg 85%
    06:00 +21°C° 0 mm 3 m/S 747 mmHg 81%
    07:00 +24°C° 0 mm 3 m/S 747 mmHg 78%
    08:00 +26°C° 0 mm 3 m/S 747 mmHg 74%
    09:00 +27°C° 0.2 mm 3 m/S 747 mmHg 68%
    10:00 +29°C° 0.2 mm 3 m/S 747 mmHg 62%
    11:00 +30°C° 0.2 mm 4 m/S 747 mmHg 56%
    12:00 +30°C° 0 mm 4 m/S 746 mmHg 55%
    13:00 +32°C° 0 mm 4 m/S 746 mmHg 54%
    14:00 +31°C° 0 mm 3 m/S 746 mmHg 53%
    15:00 +31°C° 0.1 mm 3 m/S 746 mmHg 58%
    16:00 +30°C° 0.1 mm 3 m/S 746 mmHg 62%
    17:00 +30°C° 0.1 mm 2 m/S 745 mmHg 66%
    18:00 +28°C° 0.1 mm 2 m/S 745 mmHg 69%
    19:00 +26°C° 0.1 mm 3 m/S 745 mmHg 72%
    20:00 +25°C° 0.1 mm 3 m/S 745 mmHg 76%
    21:00 +24°C° 0 mm 3 m/S 745 mmHg 77%
    22:00 +22°C° 0 mm 3 m/S 745 mmHg 78%
    23:00 +21°C° 0 mm 3 m/S 745 mmHg 80%

    11 Juni, Donnerstag

    Zeit Temperatur Niederschläge Wind Luftdruck Luftfeuchtigkeit
    00:00 +21°C° 0 mm 3 m/S 745 mmHg 80%
    01:00 +20°C° 0 mm 3 m/S 745 mmHg 80%
    02:00 +20°C° 0 mm 3 m/S 745 mmHg 81%
    03:00 +20°C° 0 mm 2 m/S 745 mmHg 82%
    04:00 +20°C° 0 mm 2 m/S 745 mmHg 83%
    05:00 +20°C° 0 mm 2 m/S 745 mmHg 84%
    06:00 +23°C° 0 mm 2 m/S 745 mmHg 80%
    07:00 +25°C° 0 mm 3 m/S 745 mmHg 75%
    08:00 +27°C° 0 mm 3 m/S 745 mmHg 71%
    09:00 +28°C° 0 mm 3 m/S 745 mmHg 67%
    10:00 +29°C° 0 mm 3 m/S 745 mmHg 62%
    11:00 +30°C° 0 mm 4 m/S 745 mmHg 58%
    12:00 +30°C° 0 mm 4 m/S 744 mmHg 57%
    13:00 +32°C° 0 mm 4 m/S 744 mmHg 55%
    14:00 +32°C° 0 mm 4 m/S 744 mmHg 54%
    15:00 +31°C° 0 mm 3 m/S 743 mmHg 58%
    16:00 +31°C° 0 mm 3 m/S 743 mmHg 62%
    17:00 +30°C° 0 mm 2 m/S 743 mmHg 66%
    18:00 +28°C° 0 mm 3 m/S 743 mmHg 69%
    19:00 +27°C° 0 mm 3 m/S 743 mmHg 72%
    20:00 +25°C° 0 mm 3 m/S 743 mmHg 75%
    21:00 +24°C° 0 mm 3 m/S 743 mmHg 77%
    22:00 +22°C° 0 mm 3 m/S 743 mmHg 80%
    23:00 +21°C° 0 mm 3 m/S 743 mmHg 82%
    Mehr zeigen